Retour au catalogue

STARLINK-3264

ActifCommunicationsVLEO
NORAD 50198·PAYLOAD·🇺🇸 United States

Lancé Dec 18, 2021 depuis Vandenberg Space Force Base

Loading…

Prochains Passages (prochaines 24 heures)

TLE

FraisSource: CelesTrak SupGP

Époque: Sep 14, 2026, 20:38 UTC

1 50198C 21125AU  26257.86020833 -.00005132  00000+0 -25141-3 0  2571
2 50198  53.1585 105.9760 0002446 111.9409 156.8084 15.17644591    17

Suivez STARLINK-3264 en temps réel avec AllMySat

Download on the App Store